Glens Falls, NY

11:00 AM EDT on October 20, 2019 (GMT -0400)
Bennett Memorial

Weather History for KGFL - August, 2019

Change the Weather History Date:

Saturday, August 31, 2019

  Actual Average Record
Temperature  
Mean Temperature 61 °F 64 °F  
Max Temperature 76 °F 76 °F 92 °F (1953)
Min Temperature 46 °F 52 °F 34 °F (1965)
Degree Days  
Heating Degree Days 4 3  
Month to date heating degree days 28 45  
Since 1 June heating degree days 98 156  
Since 1 July heating degree days 28 66  
Cooling Degree Days 0 2  
Month to date cooling degree days 99 107  
Year to date cooling degree days 395 327  
Since 1 June cooling degree days 386 315  
Growing Degree Days 10 (Base 50)    
Moisture  
Dew Point 48 °F    
Average Humidity 68    
Maximum Humidity 100    
Minimum Humidity 35    
Precipitation  
Precipitation 0.00 in 0.10 in 2.00 in (1941)
Month to date precipitation 2.85 3.68  
Year to date precipitation 28.79 25.81  
Sea Level Pressure  
Sea Level Pressure 30.22 in    
Wind  
Wind Speed 4 mph (WNW)    
Max Wind Speed 15 mph    
Max Gust Speed 20 mph    
Visibility 9 miles    
Events      
T = Trace of Precipitation, MM = Missing Value Source: NWS Daily Summary

Daily Weather History Graph

Daily Weather History Graph

Search for Another Location

Airport or City:

Astronomy

Aug. 31, 2019 Rise Set
Actual Time 6:17 AM EDT 7:31 PM EDT
Civil Twilight 5:47 AM EDT 8:01 PM EDT
Nautical Twilight 5:12 AM EDT 8:36 PM EDT
Astronomical Twilight 4:34 AM EDT 9:13 PM EDT
Moon 7:30 AM EDT (8/31) 8:41 PM EDT (8/31)
Length of Visible Light 14h 13m
Length of Day
13h 14m
New Moon, 2% of the Moon is Illuminated
Aug 31
New Moon
Sep 5
First Quarter
Sep 14
Full
Sep 21
Last Quarter
Sep 28
New

Hourly Weather History & Observations

Time (EDT) Temp. Dew Point Humidity Pressure Visibility Wind Dir Wind Speed Gust Speed Precip Events Conditions
12:53 AM 54.0 °F 51.1 °F 90% 30.11 in 10.0 mi Calm Calm - N/A   Clear
1:53 AM 59.0 °F 50.0 °F 72% 30.12 in 10.0 mi WSW 6.9 mph - N/A   Clear
2:53 AM 54.0 °F 50.0 °F 86% 30.13 in 10.0 mi NNE 3.5 mph - N/A   Clear
3:53 AM 51.1 °F 48.9 °F 92% 30.14 in 10.0 mi Calm Calm - N/A   Clear
4:53 AM 51.1 °F 48.9 °F 92% 30.16 in 7.0 mi Calm Calm - N/A   Clear
5:53 AM 46.9 °F 46.0 °F 97% 30.19 in 4.0 mi Calm Calm - N/A   Clear
5:58 AM 46.9 °F 45.0 °F 93% 30.18 in 1.8 mi Calm Calm - N/A   Clear
6:06 AM 50.0 °F 48.0 °F 93% 30.19 in 3.0 mi Variable 3.5 mph - N/A   Clear
6:53 AM 46.9 °F 45.0 °F 93% 30.21 in 10.0 mi Calm Calm - N/A   Clear
7:53 AM 57.9 °F 52.0 °F 81% 30.23 in 10.0 mi Calm Calm - N/A   Clear
8:53 AM 64.0 °F 50.0 °F 60% 30.23 in 10.0 mi SW 3.5 mph - N/A   Clear
9:53 AM 66.9 °F 51.1 °F 57% 30.23 in 10.0 mi South 5.8 mph - N/A   Clear
10:53 AM 70.0 °F 48.9 °F 47% 30.23 in 10.0 mi WSW 11.5 mph 17.3 mph N/A   Clear
11:53 AM 71.1 °F 48.9 °F 45% 30.23 in 10.0 mi SW 11.5 mph - N/A   Scattered Clouds
12:53 PM 73.9 °F 48.0 °F 40% 30.21 in 10.0 mi West 9.2 mph - N/A   Partly Cloudy
1:53 PM 75.0 °F 46.9 °F 37% 30.22 in 10.0 mi West 8.1 mph - N/A   Mostly Cloudy
2:53 PM 73.0 °F 46.0 °F 38% 30.22 in 10.0 mi NW 5.8 mph - N/A   Scattered Clouds
3:53 PM 72.0 °F 46.9 °F 41% 30.22 in 10.0 mi NNW 5.8 mph - N/A   Mostly Cloudy
4:53 PM 73.0 °F 45.0 °F 37% 30.24 in 10.0 mi North 10.4 mph - N/A   Partly Cloudy
5:53 PM 73.0 °F 46.9 °F 39% 30.26 in 10.0 mi NNW 8.1 mph - N/A   Scattered Clouds
6:53 PM 70.0 °F 48.0 °F 46% 30.27 in 10.0 mi NNW 4.6 mph - N/A   Clear
7:53 PM 59.0 °F 51.1 °F 75% 30.27 in 10.0 mi WNW 3.5 mph - N/A   Clear
8:53 PM 55.0 °F 51.1 °F 86% 30.30 in 10.0 mi Calm Calm - N/A   Clear
9:53 PM 52.0 °F 48.9 °F 89% 30.32 in 10.0 mi Calm Calm - N/A   Clear
10:53 PM 51.1 °F 48.9 °F 92% 30.32 in 10.0 mi Calm Calm - N/A   Clear
11:53 PM 50.0 °F 48.0 °F 93% 30.32 in 10.0 mi Calm Calm - N/A   Clear